Simultaneous Nadir Overpasses (SNOs) Predictions

Prediction of SNOs between GOES-16 and NOAA-20 Satellite Orbit:

Table of predicted SNOs for the next 14.0 days since TLE Epoch: 11/25/2023
Index Date Time (GOES-16) GOES-16 Lat,Lon NOAA-20 Lat,Lon Distance(km) Time Diff (sec)
1 11/26/2023 06:32:41 0.01, -75.23 0.29, -76.50 144.71 80
2 11/27/2023 06:11:16 0.01, -75.25 -0.71, -71.97 374.27 80
3 11/28/2023 18:33:14 -0.01, -75.31 -0.46, -77.28 224.82 80
4 11/29/2023 18:17:09 -0.01, -75.34 0.54, -72.75 294.65 80
5 12/01/2023 06:38:57 0.01, -75.37 0.63, -78.02 302.34 80
6 12/02/2023 06:17:34 0.01, -75.40 -0.44, -73.50 217.36 80
7 12/03/2023 18:39:30 -0.01, -75.46 -0.78, -78.80 380.65 80
8 12/04/2023 18:23:27 -0.01, -75.50 0.29, -74.28 139.82 80
9 12/06/2023 06:45:15 0.00, -75.56 0.87, -79.56 455.22 80
10 12/07/2023 06:23:51 0.01, -75.60 -0.14, -75.03 65.44 80
